Middletown, OH

11:57 AM EST on November 24, 2017 (GMT -0500)
Hook Field Municipal

Weather History for KMWO - November, 2012

Change the Weather History Date:

Sunday, November 4, 2012

  Actual Average (KFFO) Record (KFFO)
Temperature  
Mean Temperature 38 °F -  
Max Temperature 45 °F 55 °F 78 °F (2003)
Min Temperature 32 °F 36 °F 23 °F (2006)
Degree Days  
Heating Degree Days 26    
Moisture  
Dew Point 35 °F    
Average Humidity 87    
Maximum Humidity 100    
Minimum Humidity 72    
Precipitation  
Precipitation 0.00 in - - ()
Sea Level Pressure  
Sea Level Pressure 30.17 in    
Wind  
Wind Speed 4 mph (North)    
Max Wind Speed 9 mph    
Max Gust Speed -    
Visibility 10 miles    
Events      
Averages and records for this station are not official NWS values.
T = Trace of Precipitation, MM = Missing Value Source: NWS Daily Summary

Daily Weather History Graph

Daily Weather History Graph

Search for Another Location

Airport or City:

Trip Planner

Search our weather history database for the weather conditions in past years. The results will help you decide how hot, cold, wet, or windy it might be!

Date:

Astronomy

Nov. 04, 2012 Rise Set
Actual Time 7:09 AM EST 5:32 PM EST
Civil Twilight 6:41 AM EST 6:00 PM EST
Nautical Twilight 6:09 AM EST 6:32 PM EST
Astronomical Twilight 5:38 AM EST 7:03 PM EST
Moon 10:09 PM EST (11/4) 11:52 AM EST (11/4)
Length of Visible Light 11h 18m
Length of Day
10h 22m
Waning Gibbous, 72% of the Moon is Illuminated
Nov 4
Waning Gibbous
Nov 6
Last Quarter
Nov 13
New
Nov 20
First Quarter
Nov 28
Full

Hourly Weather History & Observations

Time (EST) Temp. Windchill Dew Point Humidity Pressure Visibility Wind Dir Wind Speed Gust Speed Precip Events Conditions
12:15 AM 40.1 °F 36.9 °F 38.3 °F 93% 30.14 in 10.0 mi NNE 4.6 mph - N/A   Overcast
12:35 AM 40.1 °F 38.0 °F 38.3 °F 93% 30.14 in 10.0 mi NNE 3.5 mph - N/A   Overcast
12:55 AM 40.1 °F 38.0 °F 38.3 °F 93% 30.14 in 10.0 mi NNE 3.5 mph - N/A   Overcast
1:15 AM 39.2 °F 37.0 °F 37.4 °F 93% 30.14 in 10.0 mi NNE 3.5 mph - N/A   Overcast
1:35 AM 38.8 °F - 37.0 °F 93% 30.14 in 10.0 mi Calm Calm - N/A   Overcast
1:55 AM 37.6 °F 35.1 °F 36.5 °F 96% 30.15 in 10.0 mi North 3.5 mph - N/A   Mostly Cloudy
1:15 AM 37.6 °F 33.1 °F 37.2 °F 99% 30.15 in 10.0 mi North 5.8 mph - N/A   Clear
1:35 AM 35.1 °F 30.1 °F 35.1 °F 100% 30.15 in 10.0 mi North 5.8 mph - N/A   Clear
1:55 AM 35.1 °F 31.0 °F 34.7 °F 99% 30.15 in 10.0 mi North 4.6 mph - N/A   Clear
2:15 AM 35.1 °F 31.0 °F 34.7 °F 99% 30.15 in 10.0 mi NNE 4.6 mph - N/A   Clear
2:35 AM 35.1 °F 31.0 °F 34.3 °F 97% 30.15 in 10.0 mi NNE 4.6 mph - N/A   Clear
2:55 AM 35.1 °F 32.2 °F 34.7 °F 99% 30.15 in 10.0 mi NNE 3.5 mph - N/A   Clear
3:15 AM 35.1 °F - 34.7 °F 99% 30.14 in 10.0 mi Calm Calm - N/A   Clear
3:35 AM 35.1 °F 32.2 °F 34.7 °F 99% 30.14 in 10.0 mi North 3.5 mph - N/A   Clear
3:55 AM 35.1 °F 32.2 °F 34.7 °F 99% 30.15 in 10.0 mi North 3.5 mph - N/A   Clear
4:15 AM 35.1 °F - 34.0 °F 96% 30.15 in 10.0 mi Calm Calm - N/A   Clear
4:35 AM 32.5 °F 29.3 °F 32.2 °F 99% 30.15 in 10.0 mi NNE 3.5 mph - N/A   Clear
4:55 AM 32.5 °F - 32.5 °F 100% 30.16 in 10.0 mi Calm Calm - N/A   Clear
5:15 AM 32.5 °F 29.3 °F 32.5 °F 100% 30.16 in 10.0 mi North 3.5 mph - N/A   Clear
5:35 AM 32.5 °F 28.1 °F 32.4 °F 99% 30.16 in 10.0 mi North 4.6 mph - N/A   Clear
5:55 AM 32.5 °F 27.1 °F 32.4 °F 99% 30.16 in 10.0 mi NNE 5.8 mph - N/A   Clear
6:15 AM 32.5 °F 28.1 °F 32.5 °F 100% 30.16 in 10.0 mi NE 4.6 mph - N/A   Clear
6:35 AM 32.5 °F 29.3 °F 32.5 °F 100% 30.16 in 10.0 mi NE 3.5 mph - N/A   Clear
7:15 AM 32.5 °F 29.3 °F 32.5 °F 100% 30.17 in 10.0 mi NNE 3.5 mph - N/A   Clear
7:35 AM 32.5 °F 29.3 °F 32.5 °F 100% 30.18 in 10.0 mi NNE 3.5 mph - N/A   Clear
7:55 AM 32.5 °F 29.3 °F 32.5 °F 100% 30.18 in 10.0 mi NNE 3.5 mph - N/A   Clear
8:15 AM 32.5 °F - 32.5 °F 100% 30.19 in 10.0 mi Calm Calm - N/A   Clear
8:35 AM 35.1 °F - 34.9 °F 99% 30.19 in 10.0 mi Calm Calm - N/A   Clear
8:55 AM 35.8 °F - 34.9 °F 97% 30.19 in 10.0 mi Calm Calm - N/A   Clear
9:15 AM 37.6 °F 35.1 °F 36.3 °F 95% 30.19 in 10.0 mi NNW 3.5 mph - N/A   Clear
9:35 AM 37.8 °F - 35.8 °F 93% 30.20 in 10.0 mi Calm Calm - N/A   Mostly Cloudy
9:55 AM 39.2 °F 37.0 °F 36.9 °F 91% 30.20 in 10.0 mi NNE 3.5 mph - N/A   Overcast
10:15 AM 40.8 °F 36.9 °F 37.8 °F 89% 30.18 in 10.0 mi NE 5.8 mph - N/A   Overcast
10:35 AM 40.6 °F 37.5 °F 36.9 °F 86% 30.18 in 10.0 mi NE 4.6 mph - N/A   Overcast
10:55 AM 41.4 °F - 36.9 °F 84% 30.17 in 10.0 mi Calm Calm - N/A   Mostly Cloudy
11:15 AM 43.3 °F 40.7 °F 38.1 °F 82% 30.18 in 10.0 mi NE 4.6 mph - N/A   Mostly Cloudy
11:35 AM 44.4 °F - 37.8 °F 77% 30.18 in 10.0 mi Calm Calm - N/A   Mostly Cloudy
11:55 AM 45.1 °F 42.8 °F 37.9 °F 76% 30.18 in 10.0 mi NNW 4.6 mph - N/A   Overcast
12:15 PM 45.0 °F 42.6 °F 37.6 °F 75% 30.17 in 10.0 mi North 4.6 mph - N/A   Overcast
12:35 PM 45.1 °F 43.7 °F 37.6 °F 75% 30.17 in 10.0 mi NNW 3.5 mph - N/A   Overcast
12:55 PM 45.1 °F - 36.7 °F 72% 30.17 in 10.0 mi Calm Calm - N/A   Overcast
1:15 PM 45.1 °F 42.8 °F 37.9 °F 76% 30.17 in 10.0 mi North 4.6 mph - N/A   Overcast
1:35 PM 45.1 °F 42.0 °F 38.7 °F 78% 30.17 in 10.0 mi NNW 5.8 mph - N/A   Overcast
1:55 PM 45.1 °F 42.8 °F 38.5 °F 77% 30.16 in 10.0 mi North 4.6 mph - N/A   Overcast
2:15 PM 45.1 °F 42.0 °F 37.9 °F 76% 30.16 in 10.0 mi North 5.8 mph - N/A   Overcast
2:35 PM 45.1 °F 42.0 °F 36.9 °F 73% 30.16 in 10.0 mi North 5.8 mph - N/A   Overcast
2:55 PM 45.1 °F 41.4 °F 36.9 °F 73% 30.15 in 10.0 mi NNW 6.9 mph - N/A   Overcast
3:15 PM 45.1 °F 42.0 °F 38.3 °F 77% 30.15 in 10.0 mi North 5.8 mph - N/A   Overcast
3:35 PM 43.9 °F 39.3 °F 37.8 °F 79% 30.16 in 10.0 mi North 8.1 mph - N/A   Overcast
3:55 PM 42.8 °F 38.6 °F 36.7 °F 79% 30.16 in 10.0 mi North 6.9 mph - N/A   Overcast
4:15 PM 42.8 °F 38.6 °F 36.5 °F 78% 30.16 in 10.0 mi NNW 6.9 mph - N/A   Overcast
4:35 PM 41.5 °F 37.1 °F 36.0 °F 81% 30.16 in 10.0 mi NNW 6.9 mph - N/A   Overcast
4:55 PM 41.4 °F 37.6 °F 36.0 °F 81% 30.16 in 10.0 mi North 5.8 mph - N/A   Overcast
5:15 PM 41.4 °F 38.4 °F 35.8 °F 81% 30.16 in 10.0 mi North 4.6 mph - N/A   Overcast
5:35 PM 41.2 °F 39.2 °F 35.8 °F 81% 30.16 in 10.0 mi North 3.5 mph - N/A   Overcast
5:55 PM 40.6 °F 37.5 °F 35.1 °F 80% 30.16 in 10.0 mi NNW 4.6 mph - N/A   Overcast
6:15 PM 40.3 °F 34.9 °F 35.2 °F 82% 30.17 in 10.0 mi NNW 8.1 mph - N/A   Overcast
6:35 PM 40.1 °F 34.1 °F 35.4 °F 83% 30.17 in 10.0 mi North 9.2 mph - N/A   Overcast
6:55 PM 40.1 °F 35.3 °F 35.6 °F 84% 30.18 in 10.0 mi North 6.9 mph - N/A   Overcast
7:15 PM 39.2 °F 33.6 °F 34.0 °F 82% 30.18 in 10.0 mi North 8.1 mph - N/A   Overcast
7:35 PM 38.8 °F 34.6 °F 33.1 °F 80% 30.18 in 10.0 mi NNW 5.8 mph - N/A   Overcast
7:55 PM 38.8 °F 33.8 °F 32.9 °F 79% 30.18 in 10.0 mi North 6.9 mph - N/A   Overcast
8:15 PM 38.8 °F 33.8 °F 32.5 °F 78% 30.18 in 10.0 mi North 6.9 mph - N/A   Overcast
8:35 PM 38.8 °F 33.8 °F 32.9 °F 79% 30.18 in 10.0 mi North 6.9 mph - N/A   Overcast
8:55 PM 38.8 °F 33.8 °F 32.7 °F 79% 30.18 in 10.0 mi North 6.9 mph - N/A   Overcast
9:15 PM 38.3 °F 33.2 °F 31.3 °F 76% 30.18 in 10.0 mi North 6.9 mph - N/A   Overcast
9:35 PM 37.6 °F 34.0 °F 30.9 °F 77% 30.18 in 10.0 mi NNE 4.6 mph - N/A   Overcast
9:55 PM 37.6 °F 34.0 °F 30.9 °F 77% 30.18 in 10.0 mi North 4.6 mph - N/A   Overcast
10:15 PM 37.6 °F - 31.1 °F 77% 30.18 in 10.0 mi Calm Calm - N/A   Mostly Cloudy
10:35 PM 37.6 °F - 32.0 °F 80% 30.18 in 10.0 mi Calm Calm - N/A   Scattered Clouds
10:55 PM 35.1 °F - 32.2 °F 89% 30.18 in 10.0 mi Calm Calm - N/A   Clear